Location: Newark
(49.3808°N, 3.1844°E)
Time: 12:17:12
(UTC+00:00)

Vanguard 1 - All Passes

Search period start: 20 November 2019 00:00
Search period end: 30 November 2019 00:00
Orbit: 652 x 3831 km, 34.2° (Epoch: 19 November)

Date Brightness Start Highest point End Pass type
(mag) Time Alt. Az. Time Alt. Az. Time Alt. Az.
20 Nov - 08:09:50 10° S 08:14:39 13° SSE 08:18:34 10° SE daylight
20 Nov - 10:28:38 10° SW 10:34:58 21° S 10:39:29 10° SE daylight
20 Nov - 12:50:32 10° SW 12:54:17 16° SSW 12:57:22 10° SSE daylight
21 Nov - 08:28:31 10° SSW 08:35:32 17° SSE 08:40:40 10° SE daylight
21 Nov - 10:49:08 10° SW 10:55:43 23° S 11:00:19 10° SE daylight
21 Nov - 13:11:46 10° SW 13:14:50 14° SSW 13:17:28 10° SSE daylight
22 Nov - 08:48:05 10° SSW 08:56:23 21° SSE 09:02:07 10° ESE daylight
22 Nov - 11:09:52 10° SW 11:16:26 23° S 11:21:01 10° SE daylight
22 Nov - 13:33:33 10° SW 13:35:21 11° SSW 13:36:59 10° S daylight
23 Nov - 06:49:29 10° S 06:56:16 14° SSE 07:01:37 10° SE daylight
23 Nov - 09:08:10 10° SW 09:17:15 25° S 09:23:13 10° ESE daylight
23 Nov - 11:30:46 10° WSW 11:37:06 23° SSW 11:41:33 10° SE daylight
24 Nov - 07:07:50 10° SSW 07:17:10 19° SSE 07:23:53 10° ESE daylight
24 Nov - 09:28:35 10° SW 09:38:04 27° S 09:44:08 10° ESE daylight
24 Nov - 11:51:50 10° WSW 11:57:42 21° SSW 12:01:56 10° SSE daylight
25 Nov - 07:27:07 10° SSW 07:38:04 23° SSE 07:45:27 10° ESE daylight
25 Nov - 09:49:15 10° SW 09:58:51 29° S 10:04:53 10° SE daylight
25 Nov - 12:13:04 10° WSW 12:18:15 18° SSW 12:22:07 10° SSE daylight
26 Nov - 05:29:15 10° S 05:37:20 15° SSE 05:43:51 10° ESE visible
26 Nov - 07:46:59 10° SW 07:58:59 28° SSE 08:06:40 10° ESE daylight
26 Nov - 10:10:07 10° WSW 10:19:36 30° S 10:25:33 10° SE daylight
26 Nov - 12:34:37 10° WSW 12:38:42 15° SSW 12:41:57 10° S daylight
27 Nov - 05:47:00 10° S 05:58:14 20° SSE 06:06:29 10° ESE visible
27 Nov - 08:07:14 10° SW 08:19:52 31° S 08:27:40 10° ESE daylight
27 Nov - 10:31:07 10° WSW 10:40:17 29° SSW 10:46:05 10° SE daylight
27 Nov - 12:56:52 10° SW 12:59:04 11° SW 13:01:01 10° SSW daylight
28 Nov - 06:05:53 10° SSW 06:19:08 24° SSE 06:28:17 10° ESE visible
28 Nov - 08:27:48 10° SW 08:40:43 34° S 08:48:31 10° ESE daylight
28 Nov - 10:52:16 10° WSW 11:00:53 27° SSW 11:06:29 10° SE daylight
29 Nov - 04:09:47 10° SSE 04:17:55 14° SE 04:24:49 10° ESE visible
29 Nov - 06:25:26 10° SSW 06:40:03 29° SSE 06:49:39 10° ESE visible
29 Nov - 08:48:35 10° WSW 09:01:33 35° S 09:09:15 10° ESE daylight
29 Nov - 11:13:34 10° WSW 11:21:25 24° SSW 11:26:42 10° SSE daylight
